Flag for China Weather past 2 weeks in Changsha, Hunan, China

Now
81 °F

Fog.


Feels Like: 85 °F
Forecast: 76 / 92 °F
Wind: 3 mph from Northeast

Location: Changsha

Current Time: Aug 28, 2014 at 9:23:02 AM

Latest Report: Aug 28, 2014 at 8:00 AM


Visibility: 2 mi

Pressure: 29.92 "Hg

Humidity: 79%

Dew point: 73 °F

Location of ChangshaLocation

Historic Weather in Changsha — Graph

°F

Changsha temperature yesterday

Maximum temperature yesterday: 90 °F (at 4:00 PM)
Minimum temperature yesterday: 75 °F (at 12:00 AM)
Average temperature yesterday: 80 °F

Past Weeks' High & Low Weather Summary

 TemperatureHumidityPressure
High93 °F (Aug 22, 3:00 PM)94% (Aug 15, 6:00 AM)29.92 "Hg (Aug 15, 6:00 AM)
Low70 °F (Aug 13, 8:00 AM)44% (Aug 21, 2:00 PM)29.65 "Hg (Aug 23, 4:00 PM)
Average78 °F80%29.80 "Hg
* Reported Aug 13 8:00 AM — Aug 28 8:00 AM, Changsha, Weather by CustomWeather, © 2014

Note: Actual official high and low records may vary slightly from our data, if they occured in-between our weather recording intervals... More about our weather records

Advertising

Changsha weather history for previous 24 hours

 ConditionsComfort  
Time TempWeatherWind HumidityBarometerVisibility
8:00 AM
Aug 28
81 °FFog.3 mph79%29.92 "Hg2 mi
7:00 AM77 °FFog.3 mph89%29.92 "Hg2 mi
6:00 AM77 °FFog.3 mph89%29.92 "Hg2 mi
5:00 AM77 °FFog.1 mph83%29.89 "Hg2 mi
4:00 AM77 °FFog.8 mph83%29.89 "Hg2 mi
3:00 AM77 °FFog.3 mph83%29.89 "Hg2 mi
1:00 AM77 °FFog.3 mph83%29.92 "Hg2 mi
12:00 AM77 °FFog.8 mph89%29.92 "Hg2 mi
11:00 PM
Aug 27
79 °FFog.8 mph84%29.92 "Hg2 mi
10:00 PM79 °FFog.3 mph84%29.92 "Hg3 mi
9:00 PM79 °FFog.1 mph84%29.92 "Hg3 mi
8:00 PM81 °FFog.3 mph84%29.89 "Hg3 mi
7:00 PM82 °FFog.6 mph74%29.86 "Hg3 mi
6:00 PM86 °FPassing clouds.6 mph66%29.83 "Hg4 mi
5:00 PM88 °FPartly sunny.1 mph62%29.86 "Hg5 mi
4:00 PM90 °FPartly sunny.3 mph59%29.86 "HgN/A
3:00 PM88 °FScattered clouds.3 mph62%29.86 "HgN/A
2:00 PM88 °FPassing clouds.3 mph62%29.89 "HgN/A
1:00 PM84 °FScattered clouds.3 mph66%29.92 "HgN/A
12:00 PM82 °FScattered clouds.1 mph70%29.92 "Hg6 mi
11:00 AM81 °FPartly sunny.1 mph74%29.92 "Hg5 mi
10:00 AM79 °FScattered clouds.3 mph79%29.92 "Hg5 mi
9:00 AM77 °FScattered clouds.3 mph79%29.92 "Hg4 mi
Weather by CustomWeather, © 2014

See weather overviewHow to use our weather pages